OBJECT A

Satellite information

Favourite Embed

Satellite Type and Status

UNKNOWNIN ORBIT

Key statistics

Satellite OBJECT A at a glance.

Uptime

211

Days in orbit

Revolutions

≈ 15.2

Per day

Orbit

SSO

Sun Synchronous Orbit

Inclination

97.4

Latest

Satellite identification and parameters

Extended collection of information and parameters for OBJECT A.

Object identification

Identified? True

Debris? False

Object name: OBJECT A

International designator: 2025-103A

Object number (NORAD): 64048

Object ID (CCSDS): 64048

Country: PEOPLES REPUBLIC OF CHINA (PRC)

Current information (Y/N): Y

RCS size: MEDIUM

Orbital parameters

Period: 94.788 minutes

Inclination: 97.4109 deg

SMA: 6886.475 km

Apoapsis: 509.671 km

Periapsis: 507.009 km

RAAN: 57.2327 deg

Eccentricy: 0.00019327

Argument of periapsis: 97.1763 deg

Mean anomaly: 262.9691 deg

Mean motion: 15.19173254 rev/day

Mean motion (dot): 0.00001132 rev/day2

B* drag term: 0.000057024857 1/REarth

Two-line elements (TLE)

Creation date: Dec. 12, 2025, 10:14 a.m.

Reference frame: TEME

Reference center: EARTH

Epoch: Dec. 12, 2025, 4:14 a.m. UTC

TLE line 0: 0 OBJECT A

TLE line 1: 1 64048U 25103A 25346.17703762 .00001132 00000-0 57025-4 0 9996

TLE line 2: 2 64048 97.4109 57.2327 0001933 97.1763 262.9691 15.19173254 31680

Live tracking on map

Real-time ground track for satellite OBJECT A.

In-orbit conjunctions

There are no conjunctions computed for OBJECT A, at the moment. Check back to stay up to date, as we update our databases every day.

Go to all conjunctions

Associated space launch

6 satellites from satellite manufacturer SpaceTY, including 3 multi-spectral Earth observation satellites and 3 technology demonstration satellites for various academic institutions. * Tianyi-29 * Tianyi-34 * Tianyi-35 * Tianyi-42 * Tianyi-45 * Tianyi-46

OBJECT A was lifted into orbit during the mission ‘Zhuque-2E | 6 satellites’, on board a Zhuque-2E space rocket.

The launch took place on May 17, 2025, 4:12 a.m. from Launch Area 96.

For more information about the launch, click the button.

Launch to space Zhuque-2E | 6 satellites
Zhuque-2E | 6 satellites

Agency: N/A

Status: Launch Successful

Launch date: May 17, 2025, 4:12 a.m. UTC

Rocket: Zhuque-2E

Launch pad: Launch Area 96

Location: Jiuquan Satellite Launch Center, People's Republic of China

...

Latest news about this satellite

News about space launch
Landspace launches 6 satellites with enhanced Zhuque-2 rocket

Chinese launch startup Landspace sent six satellites into orbit Saturday with the fifth launch of its Zhuque-2 series methane-fueled rocket. The post Landspace launches 6 satellites with enhanced Zhuque-2 rocket appeared first on SpaceNews.

News about space launch
Launch Roundup: Orbital launches from five countries planned

On the heels of a busy April, activity is ramping up for May with launches… The post Launch Roundup: Orbital launches from five countries planned appeared first on NASASpaceFlight.com.


Newsletter sign-up

Weekly statistics, charts and insights to help you stay on top of the space industry.